Location: Oberwangen
(47.4286°N, 8.9679°E)
Time: 05:22:16
(UTC+00:00)

Meteor 2-1 Rocket - Pass Details

Date: 20 June 2021
Orbit: 828 x 908 km, 81.3° (Epoch: 28 July)

Event Time Altitude Azimuth Distance (km) Brightness Sun altitude
Rises 22:11:19 0° 349° (N) 3,384 9.1 -17.2°
Reaches altitude 10° 22:13:44 10° 351° (N) 2,449 7.9 -17.3°
Maximum altitude 22:19:17 78° 78° (ENE) 861 4.2 -17.6°
Enters shadow 22:22:07 30° 161° (SSE) 1,462 4.9 -17.7°
